Location: Newark
(45.9456°N, 15.4064°E)
Time: 23:49:01
(UTC+00:00)

Transit 2A Rocket - Pass Details

Date: 30 January 2020
Orbit: 592 x 911 km, 66.7° (Epoch: 19 February)

Event Time Altitude Azimuth Distance (km) Brightness Sun altitude
Exits shadow 04:08:30 24° 358° (N) 1,255 6.0 -23.6°
Drops below altitude 10° 04:10:42 10° 19° (NNE) 1,973 7.3 -23.2°
Sets 04:13:10 0° 28° (NNE) 2,914 8.4 -22.7°
